Ash Shahamah, UAE

2:08 AM +04 on June 28, 2017 (GMT +0400)
Ash Shahamah

Weather History for 41217 - September, 2013

Change the Weather History Date:

Friday, September 6, 2013

  Actual Average Record
Temperature  
Mean Temperature 101 °F -  
Max Temperature 113 °F 101 °F - ()
Min Temperature 89 °F 78 °F - ()
Cooling Degree Days 36    
Growing Degree Days 51 (Base 50)    
Moisture  
Dew Point 65 °F    
Average Humidity 38    
Maximum Humidity 63    
Minimum Humidity 13    
Precipitation  
Precipitation 0.00 in 0.00 in - ()
Sea Level Pressure  
Sea Level Pressure 29.51 in    
Wind  
Wind Speed 10 mph ()    
Max Wind Speed 20 mph    
Max Gust Speed -    
Visibility 3.6 miles    
Events      
T = Trace of Precipitation, MM = Missing Value Source: Averaged Metar Reports

Daily Weather History Graph

Daily Weather History Graph

Search for Another Location

Airport or City:

Trip Planner

Search our weather history database for the weather conditions in past years. The results will help you decide how hot, cold, wet, or windy it might be!

Date:

Astronomy

Sep. 06, 2013 Rise Set
Actual Time 6:04 AM +04 6:34 PM +04
Civil Twilight 5:41 AM +04 6:57 PM +04
Nautical Twilight 5:14 AM +04 7:24 PM +04
Astronomical Twilight 4:47 AM +04 7:51 PM +04
Moon 6:41 AM +04 (9/6) 6:59 PM +04 (9/6)
Length of Visible Light 13h 16m
Length of Day
12h 30m
New Moon, 1% of the Moon is Illuminated
Sep 6
New Moon
Sep 12
First Quarter
Sep 19
Full
Sep 27
Last Quarter
Oct 5
New

Hourly Weather History & Observations

Time (+04) Temp. Heat Index Dew Point Humidity Pressure Visibility Wind Dir Wind Speed Gust Speed Precip Events Conditions
12:00 AM 91.4 °F 102.5 °F 75.2 °F 59% 29.50 in - East 8.1 mph - N/A   Clear
1:00 AM 89 °F - 75 °F 55% 29.51 in 6 mi NE 6.9 mph - -  
1:00 AM 89.6 °F 99.8 °F 75.2 °F 62% 29.50 in - NE 6.9 mph - N/A   Clear
2:00 AM 89.6 °F 98.2 °F 73.4 °F 59% 29.47 in - East 5.8 mph - N/A   Clear
3:00 AM 93.2 °F 97.7 °F 68.0 °F 44% 29.47 in - East 5.8 mph - N/A   Clear
4:00 AM 90 °F - 64 °F 32% 29.49 in 6 mi ENE 8.1 mph - -  
4:00 AM 89.6 °F 91.1 °F 64.4 °F 43% 29.47 in - ENE 8.1 mph - N/A   Clear
5:00 AM 89.6 °F 89.5 °F 60.8 °F 38% 29.47 in - ESE 11.5 mph - N/A   Clear
6:00 AM 91.4 °F 91.4 °F 60.8 °F 36% 29.50 in 3.7 mi SE 18.4 mph - N/A   Unknown
6:12 AM 89.6 °F 90.1 °F 62.6 °F 40% 29.50 in 2.5 mi SE 19.6 mph - N/A   Unknown
7:00 AM 90 °F - 63 °F 30% 29.52 in 2 mi ESE 19.6 mph - -   Widespread Dust
7:00 AM 89.6 °F 90.1 °F 62.6 °F 40% 29.50 in 2.5 mi ESE 19.6 mph - N/A   Unknown
7:41 AM 93.2 °F 93.3 °F 60.8 °F 34% 29.53 in 1.6 mi ESE 17.3 mph - N/A   Unknown
8:00 AM 93.2 °F 93.3 °F 60.8 °F 34% 29.53 in 1.2 mi ESE 15.0 mph - N/A   Unknown
9:00 AM 96.8 °F 96.2 °F 59.0 °F 28% 29.56 in 0.9 mi ESE 12.7 mph - N/A   Unknown
9:36 AM 100.4 °F 98.8 °F 55.4 °F 22% 29.56 in 1.9 mi SE 10.4 mph - N/A   Unknown
10:00 AM 100.4 °F 98.8 °F 55.4 °F 22% 29.56 in 2.5 mi SSE 11.5 mph - N/A   Unknown
11:00 AM 104.0 °F 102.3 °F 53.6 °F 19% 29.56 in 2.8 mi SSE 12.7 mph - N/A   Unknown
12:00 PM 107.6 °F - 50.0 °F 15% 29.53 in 3.1 mi SSE 13.8 mph - N/A   Unknown
1:00 PM 109.4 °F - 51.8 °F 15% 29.53 in 3.1 mi South 11.5 mph - N/A   Unknown
2:00 PM 111.2 °F - 50.0 °F 13% 29.50 in 3.7 mi SSE 12.7 mph - N/A   Unknown
3:00 PM 113.0 °F - 50.0 °F 13% 29.47 in 4.3 mi SSE 9.2 mph - N/A   Unknown
3:14 PM 109.4 °F 112.8 °F 62.6 °F 22% 29.47 in 4.3 mi NNW 15.0 mph - N/A   Unknown
4:00 PM 107.6 °F 110.6 °F 62.6 °F 23% 29.47 in 4.3 mi North 16.1 mph - N/A   Unknown
5:00 PM 104.0 °F 118.9 °F 75.2 °F 40% 29.47 in 4.3 mi NNW 17.3 mph - N/A   Unknown
6:00 PM 100.4 °F 116.5 °F 77.0 °F 47% 29.50 in 4.3 mi North 13.8 mph - N/A   Unknown
7:00 PM 97 °F - 80 °F 49% 29.51 in 5 mi North 11.5 mph - -   Widespread Dust
7:00 PM 96.8 °F 118.6 °F 80.6 °F 60% 29.50 in 5.0 mi North 11.5 mph - N/A   Unknown
8:00 PM 95.0 °F 115.8 °F 80.6 °F 63% 29.53 in 5.0 mi North 9.2 mph - N/A   Unknown
9:00 PM 95.0 °F 112.2 °F 78.8 °F 59% 29.53 in 5.6 mi NNE 10.4 mph - N/A   Unknown
10:00 PM 95.0 °F 109.7 °F 77.0 °F 56% 29.56 in - NNE 5.8 mph - N/A   Clear
11:00 PM 98.6 °F 100.0 °F 62.6 °F 30% 29.56 in - SE 5.8 mph - N/A   Clear